STARLINK-37188, 68404

Orbit data source: Space-Track

STARLINK-37188, 68404 is a payload satellite owned by SpaceX/Seattle (US) in SSO that was launched on Thu, 26 Mar 2026 UTC via an FALCON 9 launch vehicle from the Air Force Western Test Range (AFWTR). Payload-class satellites include a variety of spacecraft equipped with specific instruments for various scientific and technological missions. These include communications satellites like Starlink; space stations such as the ISS; scientific satellites like the Hubble; Earth observation satellites from companies like Planet Labs, Umbra, and HawkEye 360; GPS; miniature CubeSats for education and research; and military/defense satellites.

Loading next visibility...
Identifier
68404, 2026-063AA
Orbit
SSO
Country
Flag of USUS
Related business
Manufacturer
SpaceX/Seattle
Mission
Operational spacecraft
Bus & Motor
STARLINK V2MO, Unknown motor
Mass
575 kg wet, ~530 kg dry
Launch date (UTC)
2026-03-26 (3 months ago)
Launch vehicle
FALCON 9
Launch site
Air Force Western Test Range (AFWTR)
Object type
Payload
Rocket body
Debris
Shape & HBR
Unknown shape, 17.7 m
Radar Cross Section
Large (>1 m²)

Expand to show TLE details & history
Last TLE update: 5 hours ago

TLE from 5 hours ago
0 STARLINK-37188
1 68404U 26063AA  26165.94556122  .00003242  00000-0  10278-3 0  9995
2 68404  97.2864 308.2752 0000133  11.6885 348.4361 15.33420888 12805
Epoch: 2026-06-14T22:41Z
TLE epoch observation values (Epoch: 2026-06-14T22:41:36.489Z)
Latitude
Longitude
64.63414°
Altitude
468.638 km
Speed
7.632 km/s
True Right ascension
20h 33m 06s
True Declination
0° 00' 00"
Sunlit
Object was in full shadow at epoch
Visualization orbit readout
Latitude
Unknown
Longitude
Unknown
Altitude
Unknown
Speed
Unknown
Apparent Right ascension
Unknown
Apparent Declination
Unknown
Sunlit
N/A
Visualization observer readout
Local Sidereal Time
14:19:37
Azimuth
Unknown
Elevation
Unknown
Doppler factor
Unknown
Orbital elements
Apogee altitude
462.649 km
Perigee altitude
462.467 km
Semi-major axis
6,840.695 km
Eccentricity
0.00001
Inclination
97.2864°
RAAN
308.2752°
Arg. of periapsis
11.6885°
True anomaly
348.43579°
Mean anomaly
348.4361°
Eccentric anomaly
348.43595°
Mean motion
3.83613 °/min
Orbital period
93.84 mins
BSTAR
0.00010278
Loading maneuver chart data...
Computing Atmospheric mass density...
Loading historical data...
Loading historical data...
Loading historical data...
Loading historical data...
Loading historical data...
Loading historical data...
Loading historical data...

Documentation

Showing up to 5 results
|